Vorticity
7 6 5 5 6 6 7 7 7 7 6 6 6 6 6 6 6 5 4 3 2 2 2 3 5 6 8 9 9 9 9 9 10 10 10 10 10 9 8 7 6 6 6 7 8 9 9 9 8 9 9 11 10 11 12 13 13 13 13 13 12 11 10 10 10 10 11 11 11
7 6 5 5 6 6 7 7 7 7 6 6 6 6 6 5 5 4 3 2 1 1 2 3 6 8 9 9 9 9 9 10 10 10 10 9 9 9 8 7 6 6 6 7 8 9 9 8 8 8 9 10 10 11 12 13 13 12 12 13 12 11 10 10 11 11 11 10 10
7 6 5 5 6 6 7 7 7 7 6 6 6 6 6 5 4 3 2 1 0 0 2 5 7 9 10 9 9 9 9 10 11 11 10 9 9 9 8 7 6 6 6 7 8 9 9 8 9 9 9 10 11 11 12 13 13 13 12 12 11 10 10 11 11 11 11 11 10
6 6 5 5 6 6 7 7 7 6 6 6 6 6 5 4 3 2 1 -0 -1 1 3 7 9 10 11 10 9 9 10 10 11 11 10 9 9 8 8 7 6 6 6 7 8 9 9 9 9 9 10 10 11 11 11 12 12 13 13 12 10 10 10 10 11 11 11 11 10
6 5 5 5 6 6 6 7 7 6 6 6 6 6 5 3 2 0 -1 -1 -0 2 5 8 10 11 11 11 10 10 9 10 11 11 10 10 9 8 7 6 6 6 6 7 8 9 9 8 9 10 11 11 11 12 12 11 12 13 13 12 11 10 10 10 11 11 11 11 10
6 5 5 5 6 6 7 7 6 6 6 6 6 5 4 3 1 -0 -1 -1 1 3 6 9 10 11 11 11 11 10 10 10 10 11 10 10 9 8 7 6 6 5 6 7 8 9 9 8 9 10 11 11 11 12 12 12 12 12 12 12 11 10 10 10 10 11 11 11 10
5 5 5 5 6 6 7 6 6 6 5 5 5 4 4 3 2 1 0 0 2 4 6 10 11 12 12 12 11 10 10 10 11 11 10 10 9 8 7 6 5 5 6 7 8 9 9 9 9 9 10 12 12 12 12 12 12 12 12 12 11 10 10 10 10 11 11 11 10
5 5 5 6 6 7 7 6 6 5 5 4 4 4 4 4 3 2 1 1 2 5 8 11 13 13 13 12 11 10 10 10 10 10 10 9 9 8 7 6 5 5 6 7 8 8 9 10 10 9 9 11 12 12 12 12 12 13 13 12 11 10 10 10 10 10 11 10 10
5 5 6 6 7 7 7 6 6 5 4 4 4 4 4 4 3 2 2 1 3 6 10 14 15 15 13 12 10 10 10 10 10 10 10 9 9 8 7 6 5 5 6 7 8 9 9 9 10 10 10 10 11 12 12 12 12 12 13 12 11 10 10 10 10 10 10 10 10
5 5 6 6 7 7 7 6 5 5 4 4 4 4 4 4 3 2 2 2 5 9 13 17 17 16 14 11 10 10 10 11 10 9 9 9 9 8 7 6 6 5 6 7 8 9 9 9 10 10 11 11 11 11 12 12 12 12 12 12 11 10 10 10 10 10 10 10 10
5 6 6 7 7 7 6 6 5 4 4 4 4 3 3 3 3 2 2 2 6 11 16 19 18 16 14 11 10 9 10 10 10 9 9 9 9 8 7 6 6 6 6 6 8 9 9 10 10 10 10 12 12 11 11 12 13 13 12 12 11 10 10 10 10 10 10 10 10
5 6 6 7 7 7 6 5 4 4 4 4 3 3 3 3 2 2 1 2 7 13 18 20 19 17 13 10 9 9 10 10 10 9 9 8 9 8 8 7 6 6 6 6 7 8 9 10 10 10 10 11 12 12 11 11 12 12 12 12 11 10 10 10 10 10 10 10 10
6 6 7 7 7 6 6 5 4 4 4 3 3 3 3 3 2 1 1 3 10 16 20 20 19 16 13 10 9 9 9 10 10 9 8 8 8 8 8 7 6 6 6 6 7 8 9 10 11 10 10 10 12 12 12 11 12 12 12 11 11 11 10 10 10 10 10 10 10
6 7 7 7 7 6 5 4 4 4 4 3 3 3 3 2 1 0 2 6 13 17 19 19 17 15 12 10 9 9 10 10 9 9 8 8 8 8 8 7 6 6 6 6 7 8 10 10 11 11 11 10 11 12 12 12 12 12 12 11 11 10 10 10 10 10 9 9 10
6 7 7 7 6 5 4 4 4 4 4 3 3 3 3 2 0 0 3 8 15 18 19 17 15 14 12 10 9 9 10 10 9 8 8 8 8 8 8 7 6 6 6 6 7 9 10 10 10 11 11 11 11 12 12 12 12 12 12 11 10 10 10 10 10 10 10 9 10
7 7 7 6 5 5 4 4 4 4 4 3 3 3 2 1 -0 1 4 10 16 18 17 16 14 13 12 11 10 10 10 10 9 8 8 8 8 8 8 7 7 6 6 6 7 8 10 11 11 11 11 11 11 12 12 12 12 12 12 11 10 10 10 10 10 10 10 9 10
7 7 6 5 5 4 4 4 4 4 4 3 3 3 2 1 0 2 6 13 17 18 16 14 13 12 12 11 11 10 10 9 9 8 7 8 8 8 8 8 7 6 6 7 7 8 9 10 11 12 12 12 12 12 12 11 11 12 12 11 10 10 10 10 10 10 10 10 11
7 6 6 5 5 5 5 4 4 4 3 3 3 3 2 1 1 4 8 15 18 17 15 13 13 13 13 12 11 11 10 9 8 7 7 7 8 8 8 8 7 6 6 7 8 8 9 9 10 11 12 12 12 12 12 11 11 12 12 11 10 10 10 11 11 10 10 10 12
6 6 5 4 5 5 5 5 4 4 3 3 3 3 2 1 2 6 12 18 19 17 14 12 12 13 13 13 12 11 10 9 8 7 7 7 8 9 9 8 7 6 6 7 8 9 9 10 10 11 11 12 12 12 12 11 11 12 12 11 10 10 10 11 11 11 11 11 12
6 5 4 4 5 5 5 4 4 4 4 4 4 3 2 2 4 10 16 21 19 16 14 12 13 13 13 13 13 12 11 9 7 6 6 7 8 9 9 8 7 6 6 7 8 9 10 10 11 11 12 11 11 11 11 11 11 12 12 11 10 10 11 11 11 11 11 11 11
5 4 4 4 4 4 4 4 4 4 4 4 4 3 3 3 7 14 20 23 19 15 13 13 13 13 14 14 14 12 10 8 7 6 6 7 9 9 9 8 7 6 6 7 8 9 10 10 11 11 12 12 11 11 10 10 11 12 12 12 11 10 11 12 12 11 11 10 11
4 4 4 4 4 4 4 4 4 4 4 5 4 3 3 5 12 19 24 22 17 14 13 13 13 13 14 15 14 13 10 8 7 6 6 7 9 9 9 8 7 6 6 7 8 9 10 10 11 11 12 12 12 11 10 10 11 12 12 12 11 11 11 12 12 11 10 10 10
4 4 4 4 4 4 4 4 4 4 4 4 4 4 5 9 18 24 25 20 16 14 13 13 13 14 14 15 14 13 10 8 6 6 6 8 9 9 9 9 8 7 7 7 8 8 9 10 11 12 12 12 12 11 11 11 11 11 12 11 11 11 11 12 12 11 10 9 10
4 4 4 4 4 4 4 4 4 4 4 4 4 5 9 16 24 26 23 18 15 14 14 13 13 13 14 14 14 13 11 8 6 6 6 8 9 10 10 9 8 7 7 6 7 9 10 10 10 11 12 13 13 12 11 11 11 11 11 11 10 11 12 12 12 11 10 9 10
4 4 4 4 4 4 4 4 3 4 4 4 5 9 15 23 27 25 20 16 14 14 14 13 13 13 13 14 14 13 11 9 7 6 6 7 9 10 10 9 8 7 7 6 7 8 9 10 10 10 11 13 13 12 12 11 11 11 11 10 10 10 11 12 12 11 10 10 11
4 4 4 4 4 4 4 3 3 3 4 5 9 15 22 28 26 22 18 15 15 14 14 13 13 12 13 13 13 12 11 9 7 6 6 7 8 10 10 10 8 7 7 6 7 8 9 9 10 11 11 12 12 12 11 12 12 12 11 10 10 10 10 10 11 11 11 11 12
4 4 4 5 4 4 3 3 3 3 5 9 15 22 27 28 24 20 16 15 15 14 13 12 12 12 12 12 12 12 11 9 8 7 6 7 8 9 10 10 9 7 7 6 7 8 8 9 9 10 11 12 12 12 12 11 12 12 11 10 10 10 10 10 10 10 11 12 13
5 5 5 5 4 3 3 2 2 5 9 16 23 27 28 25 22 18 16 15 14 13 13 12 11 11 11 12 12 12 11 9 8 7 7 7 8 9 10 9 9 8 7 7 7 8 8 9 9 10 11 12 12 12 12 11 11 12 11 10 9 9 10 10 10 10 11 11 13
5 5 5 4 4 3 2 1 4 9 16 24 27 27 26 23 20 18 16 14 13 13 12 12 11 11 11 11 12 11 11 10 8 7 7 7 8 10 10 10 9 8 7 7 7 8 8 9 9 10 11 12 12 12 12 12 11 11 11 10 10 9 9 10 10 11 11 11 12
6 5 5 4 3 2 1 3 10 17 24 27 27 26 24 22 19 16 14 13 12 12 12 12 11 11 11 11 11 11 11 10 8 7 7 7 8 9 10 10 9 8 7 7 7 8 8 9 10 10 10 11 12 12 12 12 12 11 11 10 9 9 9 10 10 11 11 11 12
6 5 5 3 1 1 3 9 18 24 27 27 26 24 23 20 17 14 11 10 11 11 12 12 11 11 11 11 11 11 11 10 9 8 7 8 8 9 9 10 9 8 7 7 7 8 8 9 10 10 11 11 12 12 12 11 12 12 11 10 9 9 9 10 10 11 11 11 12
6 5 4 2 1 4 10 19 25 27 26 25 24 23 20 16 12 9 7 7 8 10 11 12 12 12 12 12 12 11 11 10 9 8 7 8 8 9 9 9 9 8 7 7 7 8 8 9 10 10 11 11 12 12 12 12 12 12 11 10 9 8 9 9 10 10 11 11 12
5 4 2 1 4 10 18 26 27 26 25 24 23 20 16 11 7 5 4 5 7 9 11 12 12 12 12 12 12 12 11 10 9 8 7 8 8 9 9 9 9 8 7 7 7 8 9 10 10 11 11 11 12 12 12 12 12 12 11 10 9 8 9 9 10 10 11 12 13
4 2 2 3 10 18 24 27 26 24 23 21 19 15 11 6 4 4 4 5 6 8 10 12 13 13 13 13 12 12 11 10 9 8 7 8 8 9 9 9 9 8 8 7 7 8 9 10 10 11 11 11 11 11 11 12 12 12 11 10 9 9 9 9 10 10 11 12 13
3 2 4 9 18 23 26 26 24 21 19 16 14 11 8 5 5 5 5 5 5 6 8 10 12 13 14 14 13 12 11 10 9 8 8 7 8 9 10 9 9 8 8 7 7 8 9 10 10 11 11 11 11 11 12 12 13 12 11 10 9 9 9 9 9 10 11 12 13
3 5 9 16 22 25 25 23 19 16 13 10 9 8 7 7 7 6 5 4 3 4 5 7 10 13 14 15 14 13 11 10 9 8 8 8 8 9 10 9 9 8 8 8 7 8 9 10 10 11 11 11 11 12 12 13 13 13 11 10 9 9 9 9 9 9 10 12 13
6 9 14 20 24 24 22 17 12 9 6 5 5 6 6 6 6 5 4 2 1 2 3 5 8 12 14 16 15 13 12 10 9 8 8 8 9 9 10 9 9 8 8 8 8 8 8 9 10 10 11 11 11 12 13 13 13 13 11 10 9 9 9 9 9 9 10 12 13
9 13 18 22 23 21 16 10 6 3 2 2 4 4 4 3 2 1 1 1 1 1 2 4 7 11 14 16 16 14 12 10 9 8 8 8 9 10 10 10 9 8 8 8 8 8 8 9 10 11 11 11 12 12 12 13 13 13 11 10 9 9 9 8 8 9 10 12 13
13 17 21 24 21 16 10 4 2 1 1 2 2 2 1 0 -0 0 1 2 2 2 2 3 6 10 13 17 16 15 12 10 9 8 8 8 9 10 10 10 9 8 8 8 8 8 8 9 10 11 12 12 12 12 12 13 13 13 11 10 9 9 9 9 8 9 10 12 13
17 20 23 23 18 11 6 1 1 1 2 3 3 3 2 2 2 2 3 5 5 4 2 2 4 8 13 17 17 15 13 10 9 9 8 8 9 10 11 11 9 8 8 8 8 8 8 8 10 11 12 12 12 12 13 13 13 12 11 10 9 9 9 9 9 9 10 12 13
21 22 22 20 13 7 3 1 2 4 6 8 8 7 6 6 7 7 7 8 7 6 4 2 3 7 13 18 18 16 13 10 9 8 8 8 9 10 11 11 10 9 8 8 8 8 8 8 9 10 11 12 12 12 13 13 13 13 12 11 10 9 8 8 9 10 11 12 12
Height
5694 5691 5688 5685 5682 5679 5676 5673 5670 5667 5664 5660 5657 5654 5650 5647 5643 5639 5635 5632 5628 5624 5620 5615 5611 5607 5603 5599 5595 5591 5587 5582 5578 5574 5570 5565 5560 5555 5551 5546 5541 5537 5532 5527 5522 5517 5511 5506 5500 5495 5489 5483 5478 5472 5466 5461 5455 5450 5444 5438 5432 5427 5421 5416 5410 5405 5399 5393 5388
5691 5688 5685 5682 5679 5676 5673 5670 5667 5664 5660 5657 5654 5650 5647 5644 5640 5636 5632 5628 5624 5620 5616 5612 5608 5604 5600 5596 5592 5588 5583 5579 5575 5570 5566 5561 5556 5552 5547 5543 5538 5534 5529 5524 5519 5514 5508 5503 5497 5491 5486 5480 5475 5469 5464 5458 5453 5447 5442 5436 5430 5424 5419 5413 5408 5402 5397 5391 5386
5688 5685 5682 5679 5676 5673 5670 5667 5664 5660 5657 5654 5650 5647 5644 5640 5636 5633 5629 5625 5621 5617 5613 5609 5605 5601 5597 5592 5588 5584 5580 5576 5571 5567 5562 5557 5553 5548 5544 5539 5535 5530 5525 5521 5516 5510 5505 5500 5494 5489 5483 5477 5472 5466 5461 5455 5450 5445 5439 5434 5428 5422 5416 5411 5406 5400 5395 5390 5385
5685 5681 5678 5675 5672 5670 5666 5663 5660 5657 5654 5650 5647 5644 5640 5637 5633 5630 5625 5622 5618 5614 5610 5606 5602 5597 5593 5589 5585 5581 5577 5572 5568 5563 5559 5554 5550 5545 5540 5536 5532 5527 5522 5518 5513 5508 5502 5497 5491 5486 5480 5475 5469 5464 5458 5453 5447 5442 5436 5431 5425 5420 5415 5409 5404 5399 5393 5388 5383
5681 5678 5675 5672 5669 5666 5663 5660 5657 5654 5650 5647 5644 5640 5637 5634 5630 5626 5622 5618 5615 5610 5607 5603 5598 5594 5590 5586 5582 5578 5574 5569 5565 5560 5555 5551 5546 5542 5537 5533 5529 5524 5520 5515 5510 5505 5500 5494 5489 5483 5478 5472 5467 5461 5456 5451 5445 5440 5434 5428 5423 5417 5412 5407 5402 5396 5391 5386 5381
5678 5675 5672 5669 5666 5663 5660 5657 5654 5650 5647 5644 5640 5637 5634 5630 5626 5623 5619 5615 5611 5607 5603 5599 5595 5591 5587 5583 5579 5575 5570 5566 5562 5557 5553 5548 5543 5539 5534 5530 5525 5521 5516 5512 5507 5502 5496 5491 5486 5480 5475 5469 5464 5459 5453 5448 5443 5437 5432 5426 5420 5415 5410 5405 5400 5395 5390 5385 5379
5675 5671 5668 5665 5662 5660 5656 5653 5650 5647 5644 5640 5637 5634 5630 5627 5623 5619 5615 5611 5608 5604 5600 5596 5592 5588 5584 5580 5575 5571 5567 5563 5559 5554 5550 5545 5540 5535 5531 5527 5523 5518 5514 5509 5504 5499 5494 5488 5483 5478 5472 5467 5461 5456 5451 5446 5440 5435 5430 5424 5418 5413 5408 5403 5397 5392 5388 5383 5378
5671 5668 5665 5662 5659 5656 5653 5650 5647 5644 5640 5637 5634 5630 5627 5623 5620 5616 5612 5608 5604 5600 5596 5592 5589 5585 5581 5577 5572 5568 5564 5560 5555 5551 5546 5542 5537 5533 5528 5524 5520 5515 5511 5506 5501 5496 5491 5485 5480 5475 5470 5465 5459 5454 5449 5443 5438 5433 5428 5422 5416 5411 5405 5400 5395 5391 5386 5381 5376
5668 5665 5662 5659 5656 5653 5650 5647 5644 5640 5637 5634 5630 5627 5623 5620 5616 5612 5608 5604 5600 5597 5593 5589 5585 5581 5577 5573 5569 5565 5561 5557 5552 5548 5543 5539 5535 5530 5525 5521 5517 5512 5508 5503 5499 5494 5488 5483 5478 5472 5467 5462 5457 5452 5446 5441 5436 5431 5425 5420 5415 5409 5404 5398 5394 5389 5384 5380 5375
5665 5662 5659 5656 5653 5650 5647 5644 5640 5637 5634 5630 5627 5624 5620 5616 5613 5609 5605 5601 5597 5594 5590 5586 5582 5578 5574 5570 5566 5562 5558 5554 5550 5545 5540 5536 5532 5527 5523 5519 5514 5510 5505 5500 5495 5491 5486 5480 5475 5470 5465 5460 5455 5450 5444 5439 5434 5429 5424 5418 5413 5408 5402 5397 5392 5387 5383 5378 5373
5661 5659 5655 5653 5650 5646 5644 5640 5637 5634 5630 5627 5624 5620 5617 5613 5610 5605 5602 5598 5595 5591 5587 5583 5579 5575 5571 5567 5563 5559 5555 5551 5546 5542 5538 5533 5529 5525 5520 5516 5511 5507 5502 5498 5493 5488 5483 5478 5473 5467 5462 5457 5452 5447 5442 5437 5432 5427 5422 5416 5411 5406 5401 5396 5390 5385 5381 5376 5372
5658 5655 5652 5649 5646 5643 5640 5637 5634 5630 5627 5624 5620 5617 5613 5610 5606 5602 5598 5595 5591 5588 5584 5580 5576 5572 5568 5564 5560 5556 5552 5548 5544 5539 5535 5530 5526 5522 5518 5513 5509 5505 5500 5495 5490 5485 5480 5475 5470 5465 5460 5455 5450 5445 5440 5435 5430 5425 5420 5415 5410 5405 5400 5395 5389 5384 5380 5375 5370
5655 5652 5649 5646 5643 5640 5637 5634 5630 5627 5624 5620 5617 5613 5610 5606 5603 5599 5595 5592 5589 5585 5581 5577 5573 5569 5565 5561 5557 5553 5549 5545 5541 5536 5532 5528 5524 5519 5515 5510 5506 5502 5497 5493 5488 5483 5478 5473 5468 5463 5458 5453 5447 5442 5438 5433 5428 5423 5418 5413 5408 5403 5398 5393 5388 5383 5378 5373 5369
5651 5648 5645 5643 5640 5637 5634 5630 5627 5624 5620 5617 5613 5610 5606 5603 5599 5596 5592 5589 5586 5582 5578 5573 5570 5566 5562 5558 5554 5550 5546 5542 5538 5534 5529 5525 5521 5517 5512 5508 5504 5499 5495 5490 5485 5481 5476 5471 5466 5461 5456 5451 5445 5440 5435 5431 5426 5421 5417 5412 5407 5402 5397 5391 5386 5382 5377 5373 5368
5648 5645 5642 5639 5636 5633 5630 5627 5624 5620 5617 5614 5610 5606 5603 5600 5596 5593 5589 5586 5583 5579 5575 5570 5566 5562 5559 5555 5551 5547 5543 5539 5535 5531 5527 5522 5518 5514 5510 5505 5501 5497 5492 5488 5483 5478 5474 5469 5464 5459 5454 5449 5444 5439 5434 5429 5424 5420 5415 5410 5405 5400 5395 5390 5385 5380 5376 5371 5367
5644 5641 5639 5636 5633 5630 5627 5624 5620 5617 5614 5610 5607 5603 5600 5596 5593 5590 5586 5583 5579 5575 5571 5567 5563 5560 5555 5552 5548 5545 5540 5536 5532 5528 5524 5520 5516 5511 5507 5503 5499 5495 5490 5485 5480 5476 5471 5466 5462 5457 5452 5447 5442 5437 5432 5427 5422 5418 5413 5408 5403 5398 5393 5388 5384 5379 5374 5370 5365
5641 5638 5635 5632 5629 5626 5623 5620 5617 5614 5610 5607 5603 5600 5596 5593 5589 5586 5583 5580 5576 5572 5567 5564 5560 5556 5553 5549 5545 5541 5537 5533 5529 5525 5521 5517 5513 5509 5505 5501 5496 5492 5488 5483 5479 5474 5469 5464 5459 5455 5450 5445 5440 5435 5430 5425 5421 5416 5411 5406 5401 5396 5391 5386 5381 5377 5372 5367 5362
5637 5635 5632 5629 5626 5623 5620 5616 5613 5610 5607 5603 5600 5596 5593 5590 5586 5583 5580 5577 5573 5569 5564 5560 5557 5553 5550 5546 5542 5538 5535 5531 5526 5522 5519 5515 5511 5506 5502 5498 5494 5490 5485 5481 5476 5471 5467 5462 5457 5452 5448 5443 5438 5433 5429 5424 5419 5415 5410 5405 5400 5394 5389 5384 5379 5374 5369 5365 5360
5634 5631 5628 5625 5622 5620 5616 5613 5610 5606 5603 5600 5596 5593 5590 5586 5583 5580 5577 5573 5569 5565 5561 5557 5554 5550 5546 5543 5539 5535 5532 5528 5524 5520 5516 5512 5508 5504 5500 5496 5492 5487 5483 5479 5474 5470 5465 5460 5455 5450 5446 5441 5436 5431 5427 5422 5417 5413 5408 5403 5398 5392 5387 5382 5377 5372 5367 5362 5357
5630 5628 5625 5622 5619 5616 5613 5610 5606 5603 5600 5596 5593 5590 5586 5583 5580 5577 5574 5570 5566 5562 5558 5554 5550 5547 5543 5540 5536 5533 5529 5525 5521 5517 5513 5510 5506 5502 5498 5494 5489 5485 5481 5477 5472 5467 5463 5458 5453 5449 5444 5439 5435 5430 5425 5420 5415 5411 5406 5401 5396 5391 5385 5380 5375 5370 5365 5361 5356
5627 5624 5621 5619 5615 5612 5609 5606 5603 5600 5596 5593 5590 5586 5583 5580 5576 5573 5570 5566 5562 5558 5555 5551 5547 5544 5540 5536 5533 5530 5526 5522 5519 5515 5511 5507 5503 5500 5495 5491 5487 5483 5479 5475 5470 5465 5461 5456 5452 5447 5442 5438 5433 5428 5423 5419 5414 5409 5405 5400 5394 5389 5384 5379 5374 5370 5365 5361 5357
5623 5620 5618 5615 5612 5609 5606 5603 5600 5596 5593 5590 5587 5583 5580 5576 5573 5570 5567 5563 5559 5555 5551 5548 5544 5540 5537 5534 5530 5526 5523 5520 5516 5512 5509 5505 5501 5497 5493 5489 5485 5481 5476 5472 5468 5463 5459 5454 5450 5445 5441 5436 5431 5426 5421 5417 5412 5408 5403 5398 5393 5388 5383 5378 5374 5370 5365 5362 5358
5620 5617 5614 5611 5609 5605 5602 5599 5596 5593 5590 5587 5583 5580 5576 5573 5570 5567 5563 5559 5555 5552 5548 5545 5541 5538 5534 5530 5527 5524 5520 5516 5513 5510 5506 5502 5499 5495 5491 5487 5483 5479 5475 5470 5466 5461 5457 5452 5448 5443 5439 5434 5429 5425 5420 5415 5410 5406 5402 5397 5393 5388 5384 5379 5375 5371 5367 5363 5358
5616 5613 5610 5608 5605 5602 5599 5596 5593 5590 5586 5583 5580 5576 5573 5570 5567 5563 5559 5555 5552 5548 5545 5541 5538 5535 5531 5528 5524 5521 5517 5514 5510 5507 5503 5500 5496 5493 5489 5485 5480 5476 5472 5468 5464 5460 5455 5451 5446 5442 5437 5432 5428 5423 5418 5414 5410 5405 5402 5398 5393 5389 5384 5380 5376 5372 5368 5364 5359
5612 5610 5607 5604 5601 5599 5596 5593 5590 5586 5583 5580 5576 5573 5570 5567 5563 5560 5556 5552 5549 5545 5542 5538 5535 5531 5528 5525 5521 5518 5515 5511 5508 5504 5501 5497 5494 5490 5486 5483 5479 5474 5470 5466 5462 5458 5454 5449 5445 5440 5436 5431 5427 5422 5418 5413 5409 5405 5401 5397 5393 5389 5385 5380 5376 5372 5368 5363 5358
5609 5606 5604 5601 5598 5595 5592 5589 5586 5583 5580 5576 5573 5570 5566 5564 5560 5556 5553 5549 5545 5542 5539 5535 5532 5529 5525 5522 5518 5515 5512 5509 5505 5502 5498 5495 5491 5488 5484 5480 5476 5472 5468 5464 5460 5456 5452 5447 5443 5439 5435 5430 5426 5422 5417 5413 5409 5405 5400 5396 5392 5388 5384 5380 5376 5372 5367 5362 5357
5605 5603 5600 5597 5595 5592 5589 5586 5582 5579 5576 5573 5570 5566 5563 5560 5556 5553 5549 5545 5542 5539 5535 5532 5529 5526 5522 5519 5516 5512 5509 5506 5502 5499 5496 5492 5489 5485 5482 5478 5474 5470 5466 5462 5458 5454 5450 5445 5441 5437 5433 5429 5425 5420 5416 5412 5407 5403 5399 5395 5390 5386 5382 5378 5374 5370 5365 5360 5355
5602 5599 5597 5594 5591 5588 5585 5582 5579 5575 5572 5569 5566 5563 5560 5556 5553 5550 5546 5542 5539 5536 5533 5529 5526 5523 5520 5516 5513 5510 5507 5504 5500 5497 5493 5490 5486 5483 5480 5476 5472 5468 5464 5460 5456 5452 5447 5443 5439 5435 5431 5426 5422 5418 5414 5410 5406 5402 5398 5393 5389 5385 5380 5376 5372 5368 5364 5359 5354
5599 5596 5593 5590 5588 5585 5581 5579 5575 5572 5569 5566 5563 5560 5556 5553 5550 5546 5543 5540 5536 5533 5530 5526 5523 5520 5517 5514 5510 5507 5504 5501 5498 5495 5491 5488 5484 5481 5477 5474 5470 5466 5462 5458 5454 5450 5445 5441 5437 5433 5429 5425 5420 5416 5412 5408 5405 5400 5396 5392 5387 5383 5379 5374 5370 5366 5362 5358 5353
5595 5593 5590 5587 5584 5581 5578 5575 5572 5569 5566 5563 5560 5557 5553 5550 5547 5543 5540 5537 5533 5530 5527 5524 5520 5517 5514 5511 5508 5505 5502 5499 5495 5492 5489 5485 5482 5479 5475 5471 5468 5464 5460 5456 5452 5448 5444 5439 5435 5431 5427 5423 5419 5415 5411 5407 5403 5399 5395 5390 5386 5381 5377 5373 5369 5365 5360 5356 5352
5592 5589 5587 5584 5581 5578 5575 5572 5569 5566 5563 5560 5557 5554 5550 5547 5544 5540 5537 5534 5530 5527 5524 5521 5518 5515 5511 5509 5505 5502 5500 5496 5493 5490 5487 5483 5480 5476 5473 5470 5466 5462 5458 5454 5450 5446 5442 5438 5433 5429 5425 5421 5417 5413 5409 5405 5401 5397 5393 5389 5384 5380 5375 5371 5367 5363 5360 5356 5351
5588 5586 5583 5580 5577 5575 5572 5569 5566 5563 5560 5557 5554 5550 5547 5544 5541 5538 5534 5531 5528 5524 5521 5518 5515 5512 5509 5506 5503 5500 5497 5494 5491 5488 5484 5481 5478 5474 5471 5467 5464 5460 5456 5452 5448 5444 5440 5436 5432 5428 5424 5420 5416 5412 5408 5404 5400 5395 5391 5387 5383 5378 5374 5370 5366 5362 5359 5355 5351
5585 5582 5580 5577 5574 5571 5569 5566 5563 5560 5557 5554 5551 5548 5545 5541 5538 5535 5531 5528 5525 5522 5519 5515 5512 5509 5506 5503 5500 5497 5495 5492 5489 5486 5482 5479 5476 5472 5469 5465 5462 5458 5455 5450 5446 5442 5438 5434 5430 5426 5422 5419 5415 5410 5406 5402 5398 5394 5390 5385 5381 5377 5373 5369 5365 5361 5358 5354 5350
5581 5579 5576 5574 5571 5569 5566 5563 5560 5557 5554 5551 5548 5545 5542 5538 5535 5531 5528 5525 5522 5519 5516 5513 5510 5507 5504 5501 5498 5495 5492 5490 5486 5484 5480 5477 5474 5470 5467 5463 5460 5456 5453 5449 5445 5441 5437 5433 5429 5425 5421 5417 5413 5409 5405 5401 5396 5392 5389 5385 5380 5376 5371 5368 5364 5361 5357 5353 5349
5577 5575 5573 5571 5569 5566 5563 5560 5557 5554 5551 5548 5545 5542 5539 5535 5532 5529 5526 5523 5520 5516 5513 5510 5507 5504 5501 5499 5496 5493 5490 5487 5484 5481 5478 5475 5472 5468 5465 5461 5458 5455 5451 5447 5443 5439 5435 5431 5427 5424 5420 5416 5412 5408 5404 5400 5395 5391 5388 5384 5379 5375 5370 5367 5363 5360 5356 5352 5348
5574 5572 5570 5568 5565 5562 5559 5556 5554 5551 5548 5545 5542 5539 5535 5532 5529 5526 5523 5520 5517 5514 5511 5508 5505 5502 5499 5496 5493 5491 5488 5485 5482 5479 5476 5473 5470 5466 5463 5460 5456 5453 5449 5445 5442 5438 5434 5430 5426 5422 5419 5415 5410 5407 5403 5399 5395 5391 5387 5383 5378 5374 5370 5366 5363 5359 5355 5352 5348
5571 5569 5567 5565 5562 5559 5556 5553 5550 5548 5545 5542 5539 5536 5533 5530 5526 5523 5520 5517 5515 5512 5509 5506 5503 5500 5497 5494 5491 5489 5486 5483 5480 5477 5474 5471 5468 5465 5461 5458 5454 5451 5447 5444 5440 5436 5432 5428 5425 5421 5417 5413 5409 5405 5401 5398 5394 5390 5386 5382 5378 5373 5369 5366 5362 5359 5355 5351 5347
5568 5566 5564 5561 5558 5555 5553 5550 5547 5544 5541 5538 5535 5533 5530 5527 5524 5520 5518 5515 5512 5510 5506 5504 5501 5498 5495 5492 5489 5486 5484 5481 5478 5475 5472 5469 5466 5463 5459 5456 5452 5449 5445 5442 5438 5435 5431 5427 5423 5420 5416 5412 5408 5404 5400 5397 5393 5389 5385 5381 5377 5373 5369 5365 5362 5358 5354 5350 5346
5565 5562 5560 5558 5555 5552 5549 5546 5544 5541 5538 5535 5533 5530 5527 5524 5521 5518 5515 5512 5510 5507 5505 5502 5499 5495 5493 5490 5487 5484 5481 5479 5476 5473 5470 5467 5464 5460 5457 5454 5450 5447 5444 5440 5436 5433 5429 5425 5422 5418 5414 5410 5407 5403 5400 5396 5392 5388 5384 5380 5376 5372 5368 5365 5361 5358 5354 5350 5346
5561 5559 5556 5554 5551 5549 5546 5543 5540 5538 5535 5533 5530 5527 5524 5521 5518 5515 5512 5510 5507 5505 5502 5500 5496 5493 5490 5487 5485 5482 5479 5476 5474 5471 5468 5465 5462 5459 5455 5452 5449 5445 5442 5438 5435 5431 5428 5424 5420 5416 5413 5409 5405 5402 5398 5395 5391 5387 5384 5380 5375 5371 5368 5364 5360 5357 5353 5349 5345
5557 5555 5552 5550 5548 5545 5542 5540 5537 5535 5532 5530 5527 5524 5521 5518 5515 5512 5509 5507 5505 5502 5500 5497 5494 5491 5488 5485 5482 5480 5477 5474 5472 5469 5466 5463 5460 5457 5454 5450 5447 5443 5440 5437 5433 5430 5426 5422 5419 5415 5411 5408 5404 5401 5397 5394 5390 5387 5383 5379 5375 5371 5367 5364 5360 5356 5352 5349 5345